TimeMDT,TemperatureF,Dew PointF,Humidity,Sea Level PressureIn,VisibilityMPH,Wind Direction,Wind SpeedMPH,Gust SpeedMPH,PrecipitationIn,Events,Conditions,WindDirDegrees,DateUTC
12:51 AM,55.9,42.1,60,30.13,10.0,ESE,3.5,-,N/A,,Clear,120,2013-05-12 06:51:00
1:51 AM,53.1,41.0,64,30.13,10.0,Calm,Calm,-,N/A,,Partly Cloudy,0,2013-05-12 07:51:00
2:51 AM,53.1,42.1,66,30.14,10.0,NNE,3.5,-,N/A,,Clear,20,2013-05-12 08:51:00
3:51 AM,45.0,39.0,80,30.15,10.0,Calm,Calm,-,N/A,,Clear,0,2013-05-12 09:51:00
4:51 AM,43.0,37.9,82,30.16,10.0,Calm,Calm,-,N/A,,Clear,0,2013-05-12 10:51:00
5:51 AM,43.0,39.0,86,30.17,10.0,Calm,Calm,-,N/A,,Clear,0,2013-05-12 11:51:00
6:51 AM,42.1,37.0,82,30.18,10.0,Calm,Calm,-,N/A,,Clear,0,2013-05-12 12:51:00
7:51 AM,51.1,44.1,77,30.18,10.0,Calm,Calm,-,N/A,,Clear,0,2013-05-12 13:51:00
8:51 AM,55.9,41.0,57,30.17,10.0,Calm,Calm,-,N/A,,Clear,0,2013-05-12 14:51:00
9:51 AM,61.0,44.1,54,30.18,10.0,Variable,3.5,-,N/A,,Clear,0,2013-05-12 15:51:00
10:51 AM,68.0,39.9,36,30.16,10.0,Calm,Calm,-,N/A,,Clear,0,2013-05-12 16:51:00
11:51 AM,73.0,39.9,30,30.14,10.0,Calm,Calm,-,N/A,,Clear,0,2013-05-12 17:51:00
12:51 PM,77.0,36.0,23,30.12,10.0,NE,3.5,-,N/A,,Clear,40,2013-05-12 18:51:00
1:51 PM,80.1,34.0,19,30.10,10.0,Variable,4.6,-,N/A,,Clear,0,2013-05-12 19:51:00
2:51 PM,80.1,35.1,20,30.08,10.0,Variable,3.5,-,N/A,,Clear,0,2013-05-12 20:51:00
3:51 PM,81.0,34.0,18,30.08,10.0,WNW,4.6,-,N/A,,Clear,290,2013-05-12 21:51:00
4:51 PM,82.9,34.0,17,30.05,10.0,Calm,Calm,-,N/A,,Clear,0,2013-05-12 22:51:00
5:51 PM,82.0,36.0,19,30.04,10.0,SSW,8.1,-,N/A,,Clear,200,2013-05-12 23:51:00
6:51 PM,81.0,34.0,18,30.02,10.0,SW,4.6,-,N/A,,Clear,220,2013-05-13 00:51:00
7:51 PM,78.1,35.1,21,30.00,10.0,South,8.1,-,N/A,,Clear,180,2013-05-13 01:51:00
8:51 PM,69.1,41.0,36,30.01,10.0,ESE,6.9,-,N/A,,Clear,120,2013-05-13 02:51:00
9:51 PM,64.0,39.9,41,30.03,10.0,Calm,Calm,-,N/A,,Clear,0,2013-05-13 03:51:00
10:51 PM,57.0,46.0,67,30.04,10.0,West,4.6,-,N/A,,Clear,280,2013-05-13 04:51:00
11:51 PM,55.9,46.0,69,30.04,10.0,Calm,Calm,-,N/A,,Clear,0,2013-05-13 05:51:00